Location: Clanezzo
(45.7500°N, 9.6000°E)
Time: 06:16:14
(UTC+00:00)

AO-73 - Pass Details

Date: 02 July 2022
Orbit: 579 x 657 km, 97.6° (Epoch: 09 August)

Event Time Altitude Azimuth Distance (km) Brightness Sun altitude
Rises 02:37:37 0° 24° (NNE) 2,962 ? -8.6°
Reaches altitude 10° 02:40:08 10° 37° (NE) 2,057 ? -8.3°
Maximum altitude 02:43:55 26° 94° (E) 1,279 ? -7.8°
Drops below altitude 10° 02:47:43 10° 151° (SSE) 2,063 ? -7.3°
Sets 02:50:14 0° 164° (SSE) 2,972 ? -7.0°
